[[{"header":{"parameterUnit":"m.s-1","parameterCategory":1,"la1":30.2992,"la2":30.254,"lo1":-89.0895,"lo2":-89.0443,"dy":0.0025,"dx":0.0025,"nx":19,"ny":19,"refTime":"2026-04-25T03:00:00:Z","depth":0,"parameterNumber":2,"parameterNumberName":"U-component_of_WINDS"},"data":[0,0,0,4.4534,4.4543,4.4988,4.499,4.5509,4.5513,0,0,0,0,0,0,0,0,0,0,0,4.4372,4.4374,4.4533,4.4544,4.4988,4.499,4.5508,4.5513,0,0,0,0,0,0,0,0,0,0,0,4.437,4.4373,4.4376,4.4545,4.4987,4.499,4.5507,4.5189,0,0,0,0,0,0,0,0,0,0,4.4766,4.4586,4.4373,4.4376,4.4548,4.4987,4.4991,4.5175,4.5209,4.5285,0,4.5345,0,4.5437,4.5544,4.5546,0,0,0,4.4567,4.4557,4.4705,4.4377,4.4551,4.4986,4.4794,4.5195,4.5233,4.533,4.5353,4.5373,4.5445,4.5547,4.555,4.591,4.591,0,0,4.4542,4.4435,4.4678,4.4728,4.4656,4.478,4.4807,4.5219,4.5236,4.5355,4.5386,4.5454,4.555,4.5554,4.5909,4.591,0,0,0,4.4456,4.4417,4.4556,4.4705,4.4789,4.4792,4.4824,4.5218,4.5272,4.5392,4.546,4.5553,4.5559,4.5909,4.5909,4.5833,0,0,0,4.4442,4.4367,4.4544,4.4483,4.478,4.5009,4.4813,4.5243,4.5293,4.5457,4.5553,4.5563,4.5908,4.5909,4.5834,4.5814,0,0,0,4.4353,4.4357,4.4411,4.4476,4.4663,4.5005,4.5084,4.5257,4.5333,4.5546,4.5565,4.5908,4.5909,4.5835,4.5816,4.5876,0,0,0,4.4227,4.4338,4.4407,4.4557,4.4659,4.4954,4.5082,4.5308,4.5482,4.5556,4.5908,4.5909,4.5835,4.5817,4.5876,4.5906,4.5909,0,0,4.4307,4.4343,4.444,4.4516,4.477,4.4895,4.514,4.5401,4.5521,4.5773,4.5784,4.5833,4.5816,4.5876,4.5964,4.5965,0,0,0,4.4429,4.4497,4.4588,4.4747,4.4948,4.5119,4.5354,4.5451,4.567,4.5628,4.5876,4.5869,4.5908,4.5928,4.5929,4.5969,4.5914,4.5914,4.5914,4.4388,4.4533,4.4702,4.49,4.5053,4.5293,4.543,4.5602,4.5705,4.5761,4.5836,4.5872,4.589,4.5892,4.5931,4.5865,4.5865,4.5865,4.5865,4.4516,4.4635,4.4768,4.4979,4.5131,4.5311,4.5546,4.5613,4.5802,4.5827,4.587,4.5882,4.5888,4.5931,4.5861,4.5861,4.5862,4.5862,4.5863,4.4504,4.4586,4.4701,4.4945,4.5117,4.5315,4.5489,4.5624,4.5751,4.5793,4.5886,4.5888,4.5904,4.5828,4.5828,4.5828,4.5828,4.5828,4.5828,4.4445,4.4577,4.4708,4.4929,4.5048,4.5222,4.5463,4.5585,4.5753,4.5837,4.5838,4.5933,4.5863,4.584,4.5831,4.5831,4.583,4.583,4.583,4.4519,4.4523,4.4724,4.4843,4.5113,4.5274,4.5442,4.5677,4.5797,4.5878,4.5967,4.5892,4.5939,4.594,4.5922,4.5935,4.5935,4.5935,4.5935,4.4507,4.4544,4.4778,4.4959,4.5152,4.5324,4.5546,4.5734,4.593,4.6013,4.6031,4.602,4.6014,4.6065,4.6063,4.6048,4.6093,4.6094,4.6094,4.456,4.4621,4.4784,4.4974,4.5195,4.5381,4.5593,4.5796,4.6019,4.6103,4.608,4.6074,4.6058,4.6045,4.6126,4.6119,4.6096,0,0]},{"header":{"parameterUnit":"m.s-1","parameterCategory":1,"la1":30.2992,"la2":30.254,"lo1":-89.0895,"lo2":-89.0443,"dy":0.0025,"dx":0.0025,"nx":19,"ny":19,"refTime":"2026-04-25T03:00:00:Z","depth":0,"parameterNumber":3,"parameterNumberName":"V-component_of_WINDS"},"data":[0,0,0,4.6904,4.6908,4.7126,4.7127,4.738,4.7382,0,0,0,0,0,0,0,0,0,0,0,4.6826,4.6828,4.6903,4.6908,4.7126,4.7127,4.7379,4.7382,0,0,0,0,0,0,0,0,0,0,0,4.6826,4.6827,4.6829,4.6909,4.7126,4.7127,4.7379,4.7223,0,0,0,0,0,0,0,0,0,0,4.7016,4.6933,4.6827,4.6829,4.691,4.7125,4.7127,4.7216,4.7233,4.7271,0,4.7304,0,4.7347,4.7397,4.7398,0,0,0,4.6917,4.6919,4.6989,4.6829,4.6912,4.7125,4.703,4.7226,4.7244,4.7293,4.7308,4.7318,4.7351,4.7399,4.74,4.7596,4.7596,0,0,4.6905,4.6858,4.6976,4.7001,4.6969,4.7023,4.7037,4.7237,4.7249,4.7309,4.7324,4.7355,4.74,4.7402,4.7595,4.7596,0,0,0,4.6865,4.6849,4.6916,4.699,4.7031,4.7029,4.7045,4.724,4.7266,4.7327,4.7358,4.7401,4.7404,4.7595,4.7596,4.7576,0,0,0,4.6858,4.6826,4.691,4.6883,4.7027,4.7139,4.7043,4.7252,4.7276,4.7357,4.7402,4.7407,4.7595,4.7595,4.7575,4.7574,0,0,0,4.6816,4.6821,4.6849,4.688,4.6972,4.7137,4.7174,4.7258,4.7295,4.7398,4.7407,4.7594,4.7595,4.7575,4.7573,4.7612,0,0,0,4.6758,4.6827,4.6847,4.6936,4.697,4.7123,4.7174,4.729,4.7376,4.7403,4.7595,4.7596,4.7575,4.7573,4.7611,4.7636,4.7642,0,0,4.6818,4.6832,4.6888,4.6913,4.7051,4.7094,4.7228,4.7351,4.7402,4.7527,4.7533,4.7575,4.7573,4.7612,4.7693,4.7697,0,0,0,4.6891,4.6931,4.6977,4.7059,4.7155,4.7236,4.7344,4.7389,4.7498,4.7458,4.7601,4.7601,4.7626,4.764,4.7644,4.7667,4.76,4.76,4.76,4.6909,4.6973,4.7069,4.7159,4.7236,4.7345,4.7413,4.7492,4.7533,4.7565,4.7603,4.7645,4.766,4.7663,4.7687,4.7621,4.7621,4.7621,4.7621,4.7003,4.7069,4.7122,4.7235,4.73,4.7394,4.7501,4.7526,4.7622,4.7622,4.7646,4.7641,4.7666,4.769,4.762,4.7621,4.7621,4.7621,4.7621,4.7023,4.7065,4.712,4.7243,4.733,4.7417,4.7507,4.7563,4.7616,4.764,4.7686,4.7686,4.7694,4.7658,4.7658,4.7658,4.7658,4.7658,4.7659,4.7021,4.7084,4.7154,4.7261,4.732,4.7404,4.7513,4.7572,4.7651,4.7684,4.7685,4.7721,4.7657,4.7639,4.7661,4.7661,4.766,4.766,4.766,4.7095,4.7087,4.7195,4.7254,4.7384,4.7465,4.7536,4.7649,4.7706,4.7747,4.7779,4.7722,4.774,4.7737,4.7723,4.7765,4.7765,4.7765,4.7765,4.7111,4.7126,4.7249,4.7339,4.7434,4.7508,4.7625,4.7709,4.7795,4.7833,4.7835,4.7821,4.7815,4.7836,4.7832,4.7819,4.7885,4.7885,4.7885,4.716,4.7186,4.7277,4.7363,4.7467,4.7555,4.7667,4.7766,4.7861,4.7891,4.7864,4.7859,4.7837,4.7827,4.7857,4.7848,4.7827,0,0]}]]